AI4U Weather Reports


Display with metric or nautical units.
time (UTC)temp
F
wind
direction
speed
MPH
gust
MPH
rain 1hr
in
rain 24hr
in
rain mn
in
humidity
%
barometer
mb
20190916204004 93 0 0.0 2.0 0.00 0.00 0.00 40 1015.9
20190916203504 94 0 0.0 3.0 0.00 0.00 0.00 39 1016.0
20190916203008 94 0 0.0 6.0 0.00 0.00 0.00 39 1016.0
20190916202505 94 0 0.0 6.0 0.00 0.00 0.00 39 1016.0
20190916202004 94 0 0.0 2.0 0.00 0.00 0.00 40 1015.9
20190916201508 94 0 0.0 2.0 0.00 0.00 0.00 39 1016.1
20190916201003 94 0 0.0 2.0 0.00 0.00 0.00 39 1016.2
20190916200504 94 0 0.0 2.0 0.00 0.00 0.00 39 1016.1
20190916200007 94 0 0.0 1.0 0.00 0.00 0.00 38 1016.2
20190916195504 94 0 0.0 1.0 0.00 0.00 0.00 39 1016.2
20190916195003 94 0 0.0 1.0 0.00 0.00 0.00 40 1016.3
20190916194507 94 0 0.0 2.0 0.00 0.00 0.00 40 1016.4
20190916194003 94 0 0.0 3.0 0.00 0.00 0.00 40 1016.4
20190916193505 94 0 0.0 3.0 0.00 0.00 0.00 40 1016.6
20190916193008 94 0 0.0 4.0 0.00 0.00 0.00 40 1016.6
20190916192504 94 0 0.0 4.0 0.00 0.00 0.00 39 1016.6
20190916192004 94 0 0.0 3.0 0.00 0.00 0.00 40 1016.7
20190916191508 93 0 0.0 2.0 0.00 0.00 0.00 40 1016.8
20190916191004 93 0 0.0 1.0 0.00 0.00 0.00 41 1016.8
20190916190507 93 0 0.0 2.0 0.00 0.00 0.00 40 1017.0
20190916190011 93 0 0.0 2.0 0.00 0.00 0.00 39 1017.0
20190916185508 94 0 0.0 3.0 0.00 0.00 0.00 40 1017.1
20190916185007 94 0 0.0 2.0 0.00 0.00 0.00 41 1017.1
20190916184511 94 0 0.0 2.0 0.00 0.00 0.00 41 1017.2
20190916184007 94 0 0.0 3.0 0.00 0.00 0.00 41 1017.2
20190916183507 93 0 0.0 3.0 0.00 0.00 0.00 40 1017.3
20190916183011 93 0 0.0 1.0 0.00 0.00 0.00 42 1017.4
20190916182507 93 0 0.0 2.0 0.00 0.00 0.00 40 1017.5
20190916182008 94 0 0.0 5.0 0.00 0.00 0.00 40 1017.6
20190916181511 94 0 0.0 5.0 0.00 0.00 0.00 38 1017.7
20190916181007 94 0 0.0 1.0 0.00 0.00 0.00 40 1017.7
20190916180507 94 0 0.0 4.0 0.00 0.00 0.00 40 1017.8
20190916180010 93 0 0.0 4.0 0.00 0.00 0.00 39 1017.9
20190916175507 94 0 0.0 2.0 0.00 0.00 0.00 40 1018.0
20190916175007 93 0 0.0 2.0 0.00 0.00 0.00 40 1018.0
20190916174511 93 0 0.0 3.0 0.00 0.00 0.00 41 1018.0
20190916174007 93 0 0.0 3.0 0.00 0.00 0.00 42 1018.2
20190916173507 93 0 0.0 3.0 0.00 0.00 0.00 40 1018.2
20190916173010 93 0 0.0 2.0 0.00 0.00 0.00 42 1018.2
20190916172507 93 0 0.0 2.0 0.00 0.00 0.00 40 1018.3
20190916172007 93 0 0.0 1.0 0.00 0.00 0.00 42 1018.4
20190916171511 93 0 0.0 1.0 0.00 0.00 0.00 43 1018.5
20190916171008 93 0 0.0 1.0 0.00 0.00 0.00 43 1018.6
20190916170507 93 0 0.0 2.0 0.00 0.00 0.00 44 1018.7
20190916170011 93 0 0.0 3.0 0.00 0.00 0.00 44 1018.6
20190916165506 93 0 0.0 3.0 0.00 0.00 0.00 44 1018.7
20190916165008 93 0 0.0 3.0 0.00 0.00 0.00 43 1018.6
20190916164510 93 0 0.0 1.0 0.00 0.00 0.00 42 1018.7
20190916164007 93 0 0.0 1.0 0.00 0.00 0.00 43 1018.8
20190916163506 94 0 0.0 1.0 0.00 0.00 0.00 42 1018.8
20190916163010 94 0 0.0 2.0 0.00 0.00 0.00 42 1018.9
20190916162507 94 0 0.0 2.0 0.00 0.00 0.00 44 1018.9
20190916162007 94 0 0.0 1.0 0.00 0.00 0.00 43 1018.9
20190916161511 96 0 0.0 1.0 0.00 0.00 0.00 41 1019.1
20190916161007 97 0 0.0 1.0 0.00 0.00 0.00 41 1019.1
20190916160507 97 0 0.0 1.0 0.00 0.00 0.00 41 1019.1
20190916160010 96 0 0.0 1.0 0.00 0.00 0.00 42 1019.2
20190916155507 96 0 0.0 1.0 0.00 0.00 0.00 44 1019.2
20190916155007 95 0 0.0 0.0 0.00 0.00 0.00 44 1019.3
20190916154511 94 0 0.0 0.0 0.00 0.00 0.00 46 1019.3
20190916154009 93 0 0.0 1.0 0.00 0.00 0.00 45 1019.3
20190916153506 93 0 0.0 1.0 0.00 0.00 0.00 45 1019.4
20190916153011 93 0 0.0 1.0 0.00 0.00 0.00 47 1019.4
20190916152507 93 0 0.0 0.0 0.00 0.00 0.00 47 1019.4
20190916152007 92 0 0.0 0.0 0.00 0.00 0.00 48 1019.5
20190916151510 92 0 0.0 1.0 0.00 0.00 0.00 48 1019.6
20190916151007 91 0 0.0 1.0 0.00 0.00 0.00 50 1019.6
20190916150506 91 0 0.0 1.0 0.00 0.00 0.00 51 1019.6
20190916150011 89 0 0.0 0.0 0.00 0.00 0.00 55 1019.6
20190916145506 88 0 0.0 0.0 0.00 0.00 0.00 58 1019.6
20190916145007 86 0 0.0 0.0 0.00 0.00 0.00 60 1019.7
20190916144510 84 0 0.0 0.0 0.00 0.00 0.00 63 1019.7
20190916144006 84 0 0.0 0.0 0.00 0.00 0.00 62 1019.7
20190916143508 83 0 0.0 1.0 0.00 0.00 0.00 62 1019.7
20190916143010 83 0 0.0 1.0 0.00 0.00 0.00 62 1019.7
20190916142506 83 0 0.0 0.0 0.00 0.00 0.00 64 1019.7
20190916142008 83 0 0.0 0.0 0.00 0.00 0.00 65 1019.6
20190916141510 83 0 0.0 0.0 0.00 0.00 0.00 65 1019.7
20190916141006 83 0 0.0 0.0 0.00 0.00 0.00 66 1019.7
20190916140507 83 0 0.0 0.0 0.00 0.00 0.00 67 1019.7
20190916140010 82 0 0.0 0.0 0.00 0.00 0.00 66 1019.7
20190916135510 82 0 0.0 0.0 0.00 0.00 0.00 68 1019.7
20190916135014 82 0 0.0 0.0 0.00 0.00 0.00 69 1019.7
20190916134510 81 0 0.0 0.0 0.00 0.00 0.00 71 1019.7
20190916134007 81 0 0.0 0.0 0.00 0.00 0.00 70 1019.7
20190916133506 80 0 0.0 0.0 0.00 0.00 0.00 71 1019.7
20190916133010 79 0 0.0 0.0 0.00 0.00 0.00 74 1019.5
20190916132507 78 0 0.0 0.0 0.00 0.00 0.00 75 1019.4
20190916132007 78 0 0.0 0.0 0.00 0.00 0.00 76 1019.5
20190916131510 77 0 0.0 0.0 0.00 0.00 0.00 78 1019.4
20190916131007 76 0 0.0 0.0 0.00 0.00 0.00 80 1019.4
20190916130507 75 0 0.0 0.0 0.00 0.00 0.00 81 1019.3
20190916130010 74 0 0.0 0.0 0.00 0.00 0.00 85 1019.3
20190916125506 73 0 0.0 0.0 0.00 0.00 0.00 86 1019.3
20190916125007 72 0 0.0 0.0 0.00 0.00 0.00 86 1019.3
20190916124511 72 0 0.0 0.0 0.00 0.00 0.00 86 1019.3
20190916124007 71 0 0.0 0.0 0.00 0.00 0.00 87 1019.2
20190916123506 71 0 0.0 0.0 0.00 0.00 0.00 88 1019.2
20190916123010 71 0 0.0 0.0 0.00 0.00 0.00 88 1019.2
20190916122506 70 0 0.0 0.0 0.00 0.00 0.00 88 1019.2
20190916122006 70 0 0.0 0.0 0.00 0.00 0.00 88 1019.1
20190916121510 70 0 0.0 0.0 0.00 0.00 0.00 87 1019.0
20190916121006 70 0 0.0 0.0 0.00 0.00 0.00 87 1018.9
20190916120507 70 0 0.0 0.0 0.00 0.00 0.00 87 1018.9
20190916120010 70 0 0.0 0.0 0.00 0.00 0.00 88 1018.9
20190916115505 69 0 0.0 0.0 0.00 0.00 0.00 87 1018.9
20190916115006 69 0 0.0 0.0 0.00 0.00 0.00 87 1018.8
20190916114510 69 0 0.0 0.0 0.00 0.00 0.00 87 1018.8
20190916114006 69 0 0.0 0.0 0.00 0.00 0.00 87 1018.7
20190916113511 69 0 0.0 0.0 0.00 0.00 0.00 86 1018.7
20190916113009 69 0 0.0 0.0 0.00 0.00 0.00 86 1018.7
20190916112506 70 0 0.0 0.0 0.00 0.00 0.00 86 1018.5
20190916112006 70 0 0.0 0.0 0.00 0.00 0.00 86 1018.5
20190916111510 70 0 0.0 0.0 0.00 0.00 0.00 86 1018.5
20190916111007 70 0 0.0 0.0 0.00 0.00 0.00 87 1018.5
20190916110506 70 0 0.0 0.0 0.00 0.00 0.00 87 1018.5
20190916110010 69 0 0.0 0.0 0.00 0.00 0.00 87 1018.5
20190916105506 70 0 0.0 0.0 0.00 0.00 0.00 86 1018.5
20190916105006 70 0 0.0 0.0 0.00 0.00 0.00 86 1018.5
20190916104509 70 0 0.0 0.0 0.00 0.00 0.00 86 1018.4
20190916104005 70 0 0.0 0.0 0.00 0.00 0.00 86 1018.4
20190916103506 70 0 0.0 0.0 0.00 0.00 0.00 86 1018.3
20190916103009 70 0 0.0 0.0 0.00 0.00 0.00 86 1018.3
20190916102507 70 0 0.0 0.0 0.00 0.00 0.00 85 1018.2
20190916102006 70 0 0.0 0.0 0.00 0.00 0.00 85 1018.2
20190916101510 70 0 0.0 0.0 0.00 0.00 0.00 85 1018.1
20190916101006 70 0 0.0 0.0 0.00 0.00 0.00 85 1018.1
20190916100513 70 0 0.0 0.0 0.00 0.00 0.00 84 1018.1
20190916100011 70 0 0.0 0.0 0.00 0.00 0.00 85 1018.1
20190916095506 71 0 0.0 0.0 0.00 0.00 0.00 84 1018.1
20190916095006 71 0 0.0 0.0 0.00 0.00 0.00 85 1018.1
20190916094510 71 0 0.0 0.0 0.00 0.00 0.00 84 1018.0
20190916094006 71 0 0.0 0.0 0.00 0.00 0.00 84 1017.9
20190916093505 71 0 0.0 0.0 0.00 0.00 0.00 84 1017.9
20190916093010 71 0 0.0 0.0 0.00 0.00 0.00 84 1017.9
20190916092505 71 0 0.0 0.0 0.00 0.00 0.00 84 1018.0
20190916092006 71 0 0.0 0.0 0.00 0.00 0.00 84 1017.9
20190916091510 71 0 0.0 0.0 0.00 0.00 0.00 83 1017.9
20190916091005 71 0 0.0 0.0 0.00 0.00 0.00 83 1017.9
20190916090506 71 0 0.0 0.0 0.00 0.00 0.00 83 1017.9
20190916090012 71 0 0.0 0.0 0.00 0.00 0.00 83 1017.9
20190916085506 71 0 0.0 0.0 0.00 0.00 0.00 83 1017.9
20190916085005 71 0 0.0 0.0 0.00 0.00 0.00 83 1017.9
20190916084509 71 0 0.0 0.0 0.00 0.00 0.00 82 1017.8
20190916084006 71 0 0.0 0.0 0.00 0.00 0.00 83 1017.8
20190916083505 71 0 0.0 0.0 0.00 0.00 0.00 83 1017.7
20190916083011 72 0 0.0 0.0 0.00 0.00 0.00 83 1017.7
20190916082505 72 0 0.0 0.0 0.00 0.00 0.00 83 1017.7
20190916082010 72 0 0.0 0.0 0.00 0.00 0.00 83 1017.7
20190916081509 72 0 0.0 0.0 0.00 0.00 0.00 83 1017.7
20190916081006 72 0 0.0 0.0 0.00 0.00 0.00 81 1017.6
20190916080505 72 0 0.0 0.0 0.00 0.00 0.00 81 1017.6
20190916080009 72 0 0.0 0.0 0.00 0.00 0.00 81 1017.6
20190916075508 72 0 0.0 0.0 0.00 0.00 0.00 81 1017.6
20190916075005 73 0 0.0 0.0 0.00 0.00 0.00 79 1017.6
20190916074509 73 0 0.0 0.0 0.00 0.00 0.00 79 1017.6
20190916074005 73 0 0.0 0.0 0.00 0.00 0.00 79 1017.6
20190916073506 73 0 0.0 0.0 0.00 0.00 0.00 79 1017.6
20190916073009 73 0 0.0 0.0 0.00 0.00 0.00 79 1017.7
20190916072506 73 0 0.0 0.0 0.00 0.00 0.00 79 1017.7
20190916072006 73 0 0.0 0.0 0.00 0.00 0.00 79 1017.7
20190916071510 73 0 0.0 0.0 0.00 0.00 0.00 78 1017.7
20190916071005 73 0 0.0 0.0 0.00 0.00 0.00 78 1017.7
20190916070506 73 0 0.0 0.0 0.00 0.00 0.00 78 1017.7
20190916070009 73 0 0.0 0.0 0.00 0.00 0.00 78 1017.7
20190916065505 73 0 0.0 0.0 0.00 0.00 0.00 78 1017.7
20190916065007 73 0 0.0 0.0 0.00 0.00 0.00 78 1017.7
20190916064510 73 0 0.0 0.0 0.00 0.00 0.00 78 1017.8
20190916064005 73 0 0.0 0.0 0.00 0.00 0.00 78 1017.8
20190916063505 73 0 0.0 0.0 0.00 0.00 0.00 77 1017.8
20190916063009 74 0 0.0 0.0 0.00 0.00 0.00 77 1017.8
20190916062505 74 0 0.0 0.0 0.00 0.00 0.00 76 1017.8
20190916062005 74 0 0.0 0.0 0.00 0.00 0.00 76 1017.8
20190916061509 74 0 0.0 0.0 0.00 0.00 0.00 75 1017.8
20190916061005 74 0 0.0 0.0 0.00 0.00 0.00 75 1017.8
20190916060505 74 0 0.0 0.0 0.00 0.00 0.00 74 1017.8
20190916060009 75 0 0.0 0.0 0.00 0.00 0.00 74 1017.8
20190916055505 75 0 0.0 0.0 0.00 0.00 0.00 74 1018.0
20190916055005 75 0 0.0 0.0 0.00 0.00 0.00 74 1017.9
20190916054509 75 0 0.0 0.0 0.00 0.00 0.00 74 1018.0
20190916054012 75 0 0.0 0.0 0.00 0.00 0.00 74 1018.0
20190916053009 75 0 0.0 0.0 0.00 0.00 0.00 74 1018.1
20190916052505 75 0 0.0 0.0 0.00 0.00 0.00 73 1018.0
20190916052006 75 0 0.0 0.0 0.00 0.00 0.00 73 1017.9
20190916051509 75 0 0.0 0.0 0.00 0.00 0.00 72 1017.9
20190916051006 76 0 0.0 0.0 0.00 0.00 0.00 72 1018.0
20190916050504 76 0 0.0 0.0 0.00 0.00 0.00 72 1018.0
20190916050010 76 0 0.0 0.0 0.00 0.00 0.00 72 1018.0
20190916045505 76 0 0.0 0.0 0.00 0.00 0.00 71 1018.0
20190916045005 76 0 0.0 0.0 0.00 0.00 0.00 70 1018.0
20190916044508 76 0 0.0 0.0 0.00 0.00 0.00 70 1018.1
20190916044005 76 0 0.0 0.0 0.00 0.00 0.00 70 1018.1
20190916043505 76 0 0.0 0.0 0.00 0.00 0.00 70 1018.1
20190916043009 76 0 0.0 0.0 0.00 0.00 0.00 70 1018.1
20190916042505 76 0 0.0 0.0 0.00 0.00 0.00 70 1018.0
20190916042006 76 0 0.0 0.0 0.00 0.00 0.00 70 1018.0
20190916041509 76 0 0.0 0.0 0.00 0.00 0.00 69 1018.1
20190916041005 77 0 0.0 0.0 0.00 0.00 0.00 69 1018.1
20190916040505 77 0 0.0 0.0 0.00 0.00 0.00 69 1018.0
20190916040008 77 0 0.0 0.0 0.00 0.00 0.00 69 1018.0
20190916035505 77 0 0.0 0.0 0.00 0.00 0.00 68 1018.0
20190916035005 77 0 0.0 0.0 0.00 0.00 0.00 68 1018.0
20190916034508 77 0 0.0 0.0 0.00 0.00 0.00 68 1018.0
20190916034005 77 0 0.0 0.0 0.00 0.00 0.00 67 1018.0
20190916033505 78 0 0.0 0.0 0.00 0.00 0.00 67 1017.9
20190916033009 78 0 0.0 0.0 0.00 0.00 0.00 66 1017.9
20190916032504 78 0 0.0 0.0 0.00 0.00 0.00 66 1018.0
20190916032005 78 0 0.0 0.0 0.00 0.00 0.00 65 1018.0
20190916031508 78 0 0.0 0.0 0.00 0.00 0.00 65 1018.0
20190916031005 78 0 0.0 0.0 0.00 0.00 0.00 65 1018.0
20190916030504 78 0 0.0 0.0 0.00 0.00 0.00 64 1018.0
20190916030009 78 0 0.0 0.0 0.00 0.00 0.00 63 1017.9
20190916025504 79 0 0.0 0.0 0.00 0.00 0.00 63 1017.7
20190916025005 79 0 0.0 0.0 0.00 0.00 0.00 63 1017.8
20190916024508 79 0 0.0 0.0 0.00 0.00 0.00 63 1017.7
20190916024005 79 0 0.0 0.0 0.00 0.00 0.00 62 1017.6
20190916023505 80 0 0.0 0.0 0.00 0.00 0.00 62 1017.6
20190916023009 80 0 0.0 0.0 0.00 0.00 0.00 61 1017.6
20190916022505 80 0 0.0 0.0 0.00 0.00 0.00 61 1017.5
20190916022005 80 0 0.0 0.0 0.00 0.00 0.00 61 1017.5
20190916021509 80 0 0.0 0.0 0.00 0.00 0.00 61 1017.5
20190916021005 80 0 0.0 0.0 0.00 0.00 0.00 60 1017.5
20190916020506 80 0 0.0 0.0 0.00 0.00 0.00 60 1017.4
20190916020009 80 0 0.0 0.0 0.00 0.00 0.00 60 1017.4
20190916015504 80 0 0.0 0.0 0.00 0.00 0.00 59 1017.4
20190916015005 80 0 0.0 0.0 0.00 0.00 0.00 60 1017.4
20190916014508 80 0 0.0 0.0 0.00 0.00 0.00 60 1017.3
20190916014005 81 0 0.0 0.0 0.00 0.00 0.00 59 1017.3
20190916013505 81 0 0.0 0.0 0.00 0.00 0.00 59 1017.3
20190916013008 81 0 0.0 0.0 0.00 0.00 0.00 58 1017.3
20190916012505 81 0 0.0 0.0 0.00 0.00 0.00 59 1017.2
20190916012004 81 0 0.0 0.0 0.00 0.00 0.00 58 1017.2
20190916011508 81 0 0.0 0.0 0.00 0.00 0.00 58 1017.2
20190916011005 82 0 0.0 0.0 0.00 0.00 0.00 57 1017.3
20190916010504 82 0 0.0 0.0 0.00 0.00 0.00 57 1017.2
20190916010008 82 0 0.0 0.0 0.00 0.00 0.00 56 1017.1
20190916005505 82 0 0.0 0.0 0.00 0.00 0.00 55 1017.1
20190916005011 83 0 0.0 0.0 0.00 0.00 0.00 55 1017.0
20190916004508 83 0 0.0 0.0 0.00 0.00 0.00 55 1016.9
20190916004004 83 0 0.0 0.0 0.00 0.00 0.00 53 1016.9
20190916003504 84 0 0.0 0.0 0.00 0.00 0.00 53 1016.8
20190916003009 84 0 0.0 0.0 0.00 0.00 0.00 52 1016.8
20190916002505 85 0 0.0 0.0 0.00 0.00 0.00 51 1016.7
20190916002005 85 0 0.0 0.0 0.00 0.00 0.00 50 1016.7
20190916001508 86 0 0.0 0.0 0.00 0.00 0.00 48 1016.7
20190916001004 86 0 0.0 0.0 0.00 0.00 0.00 47 1016.7
20190916000504 87 0 0.0 0.0 0.00 0.00 0.00 47 1016.8
20190916000008 88 0 0.0 0.0 0.00 0.00 0.00 47 1016.8
20190915235504 88 0 0.0 0.0 0.00 0.00 0.00 45 1016.8
20190915235005 89 0 0.0 0.0 0.00 0.00 0.00 43 1016.7
20190915234508 89 0 0.0 0.0 0.00 0.00 0.00 41 1016.7
20190915234004 89 0 0.0 0.0 0.00 0.00 0.00 41 1016.7
20190915233504 90 0 0.0 0.0 0.00 0.00 0.00 41 1016.8
20190915233008 90 0 0.0 0.0 0.00 0.00 0.00 41 1016.7
20190915232504 90 0 0.0 0.0 0.00 0.00 0.00 41 1016.8
20190915232004 90 0 0.0 0.0 0.00 0.00 0.00 40 1016.8
20190915231508 90 0 0.0 1.0 0.00 0.00 0.00 40 1016.7
20190915231004 91 0 0.0 1.0 0.00 0.00 0.00 39 1016.7
20190915230503 91 0 0.0 1.0 0.00 0.00 0.00 39 1016.7
20190915230009 91 0 0.0 1.0 0.00 0.00 0.00 38 1016.7
20190915225505 91 0 0.0 1.0 0.00 0.00 0.00 38 1016.6
20190915225006 91 0 0.0 0.0 0.00 0.00 0.00 38 1016.6
20190915224508 92 0 0.0 1.0 0.00 0.00 0.00 38 1016.6
20190915224004 92 0 0.0 1.0 0.00 0.00 0.00 37 1016.6
20190915223504 92 0 0.0 1.0 0.00 0.00 0.00 37 1016.7
20190915223008 92 0 0.0 1.0 0.00 0.00 0.00 37 1016.7
20190915222504 92 0 0.0 1.0 0.00 0.00 0.00 36 1016.7
20190915222004 92 0 0.0 2.0 0.00 0.00 0.00 37 1016.6
20190915221508 92 0 0.0 2.0 0.00 0.00 0.00 35 1016.6
20190915221005 92 0 0.0 1.0 0.00 0.00 0.00 35 1016.7
20190915220504 92 0 0.0 1.0 0.00 0.00 0.00 35 1016.7
20190915220008 92 0 0.0 1.0 0.00 0.00 0.00 37 1016.6
20190915215504 92 0 0.0 2.0 0.00 0.00 0.00 36 1016.6
20190915215004 92 0 0.0 2.0 0.00 0.00 0.00 39 1016.6
20190915214508 92 0 0.0 1.0 0.00 0.00 0.00 39 1016.7
20190915214004 92 0 0.0 1.0 0.00 0.00 0.00 37 1016.7
20190915213504 92 0 0.0 1.0 0.00 0.00 0.00 36 1016.8
20190915213008 92 0 0.0 1.0 0.00 0.00 0.00 39 1016.8
20190915212504 93 0 0.0 2.0 0.00 0.00 0.00 39 1016.8
20190915212004 93 0 0.0 2.0 0.00 0.00 0.00 38 1016.9
20190915211507 93 0 0.0 1.0 0.00 0.00 0.00 37 1017.0
20190915211004 92 0 0.0 2.0 0.00 0.00 0.00 36 1016.9
20190915210504 93 0 0.0 2.0 0.00 0.00 0.00 36 1017.0
20190915210007 92 0 0.0 3.0 0.00 0.00 0.00 38 1017.0
20190915205504 92 0 0.0 3.0 0.00 0.00 0.00 37 1017.1
20190915205014 92 0 0.0 2.0 0.00 0.00 0.00 38 1017.1
20190915204507 92 0 0.0 2.0 0.00 0.00 0.00 39 1017.1